Weather in Khonkholoy

Russia / Republic of Buryatia     51°07′46″N   108°13′08″E
temp.,
°C
wind,
m/s
gust,
m/s
humid.,
%
clouds,
%
prec.,
mm/h
press.,
hPa
HPBL,
m
13 may, thu
thu1323:00+5wsw227099 0.0 101111
02:00+3w2280100 0.0 101115
05:00+2wnw2283100 0.0 101216
08:00+5wsw236279 0.0 1011455
11:00+8nw6636100 0.1 10102233
14:00+9nw6828100 0.1 10102752
17:00+9nw71024100 0.0 10102932
20:00+5nw59351 0.0 1013441
14 may, fri
fri1423:00+1w22542 0.0 101621
02:00−1w22615 0.0 101729
05:00−2w22670 0.0 101832
08:00+4wnw46515 0.0 1017875
11:00+9wnw553822 0.0 10151860
14:00+11wnw6630100 0.0 10132781
17:00+12nw562614 0.0 10122582
20:00+8nw34410 0.0 101564
15 may, sat
sat1523:00+4sw11480 0.0 101710
02:00+2se11530 0.0 101710
05:00+1ese22530 0.0 101711
08:00+8s37340 0.0 1015512
11:00+15wsw692592 0.0 10121753
14:00+14wnw7732100 0.0 10121824
17:00+10nnw81051100 0.0 10151029
20:00+6nw49550 0.0 1017554
16 may, sun
sun1623:00+3wsw3264100 0.0 101929
02:00+2wsw326713 0.0 101937
05:00+1wsw237039 0.0 101936
08:00+8wsw595080 0.0 1016507
11:00+13w61040100 0.0 10131125
14:00+18w81132100 0.0 10102648
17:00+15nnw794293 0.0 10111203
20:00+11nw5106663 0.0 1012714
17 may, mon
mon1723:00+9w248091 0.1 1013214
02:00+8sw1287100 0.6 101253
05:00+8sw2287100 0.1 101128
08:00+10wsw237383 0.1 1010552
11:00+13w3759100 0.0 10081524
14:00+14nnw5558100 0.1 10081436
17:00+9w028382 1.1 1010271
20:00+10nw2371100 1.1 100988